Location: Poughquag
(41.6090°N, 73.6820°W)
Time: 14:16:23
(UTC-04:00)

Explorer 11/Cluster Stage 4 - Pass Details

Date: 04 June 2020
Orbit: 467 x 1259 km, 28.8° (Epoch: 05 July)

Event Time Altitude Azimuth Distance (km) Brightness Sun altitude
Rises 08:00:12 0° 252° (WSW) 3,465 9.3 27.0°
Reaches altitude 10° 08:03:01 10° 239° (WSW) 2,659 8.9 27.5°
Maximum altitude 08:08:18 26° 186° (S) 1,951 8.7 28.5°
Drops below altitude 10° 08:14:21 10° 133° (SE) 3,074 10.3 29.6°
Sets 08:17:53 0° 122° (ESE) 4,118 11.0 30.3°
